This demonstration page uses our WeatherBlox Daily Observations layout. Learn more.

Left ArrowRight Arrow

34.02893, -84.19858

Hourly Observations for December 14, 2018

Temp ( °F °C ) Dew Point ( °F °C ) Humidity (%) Winds ( mph kmh ) Pressure ( in mb ) Visibility ( mi km ) Precip ( " mm )
12:53 am 00:53 Cloudy 48 8.9 36 2.2 63 63 VRB 7 11 30.14 1021 9 14 0.00 0.00
1:53 am 01:53 Cloudy 48 8.9 38 3.3 68 68 ENE 8 13 30.14 1021 9 14 0.00 0.00
2:16 am 02:16 Cloudy with Light Rain 47 8.3 39 3.9 74 74 E 7 11 30.15 1021 7 11 0.00 0.03
2:53 am 02:53 Cloudy with Light Rain 45 7.2 41 5 86 86 ENE 9 15 30.14 1021 5 8 0.02 0.51
3:53 am 03:53 Cloudy with Light Rain 44 6.7 42 5.6 93 93 ENE 9 15 30.14 1021 5 8 0.02 0.51
4:42 am 04:42 Cloudy with Light Rain 43 6.1 42 5.6 97 97 ENE 8 13 30.12 1020 4 6 0.02 0.51
4:53 am 04:53 Cloudy with Light Rain 43 6.1 42 5.6 97 97 ENE 9 15 30.10 1019 4 6 0.03 0.76
5:53 am 05:53 Cloudy with Light Rain 44 6.7 43 6.1 96 96 undefined N/A 30.09 1019 4 6 0.03 0.76
6:42 am 06:42 Cloudy with Mist and Fog 44 6.7 43 6.1 96 96 ENE 8 13 30.09 1019 5 8 0.01 0.25
6:53 am 06:53 Cloudy with Mist and Fog 44 6.7 44 6.7 100 100 VRB 7 11 30.08 1019 4 6 0.01 0.25
7:46 am 07:46 Cloudy with Light Rain 45 7.2 44 6.7 97 97 ENE 7 11 30.09 1019 2 3 0.00 0.03
7:53 am 07:53 Cloudy with Light Rain 45 7.2 44 6.7 97 97 ENE 10 17 30.08 1019 2 3 0.01 0.25
7:56 am 07:56 Cloudy with Light Rain 45 7.2 44 6.7 97 97 ENE 8 13 30.09 1019 2 3 0.01 0.25
8:53 am 08:53 Cloudy with Mist and Fog 45 7.2 44 6.7 97 97 ENE 12 19 30.05 1018 2 3 0.04 1.02
9:00 am 09:00 Cloudy with Mist and Fog 45 7.2 44 6.7 97 97 ENE 12 19 30.06 1018 2 3 0.00 0.00
9:53 am 09:53 Cloudy with Mist and Fog 46 7.8 45 7.2 96 96 VRB 6 9 30.06 1018 2 3 0.00 0.00
10:26 am 10:26 Cloudy with Mist and Fog 46 7.8 45 7.2 96 96 VRB 6 9 30.09 1019 2 3 0.00 0.00
10:33 am 10:33 Cloudy with Mist and Fog 46 7.8 45 7.2 96 96 ENE 8 13 30.09 1019 2 3 0.00 0.00
10:53 am 10:53 Cloudy with Mist and Fog 46 7.8 45 7.2 96 96 E 8 13 30.06 1018 1 1 0.00 0.00
11:03 am 11:03 Cloudy with Mist and Fog 46 7.8 45 7.2 96 96 ENE 10 17 30.06 1018 1 1 0.00 0.00
11:13 am 11:13 Cloudy with Mist and Fog 46 7.8 45 7.2 96 96 ENE 8 13 30.06 1018 1 2 0.00 0.00
11:23 am 11:23 Cloudy with Mist and Fog 46 7.8 45 7.2 96 96 E 9 15 30.06 1018 1 1 0.00 0.00
11:53 am 11:53 Cloudy with Mist and Fog 47 8.3 46 7.8 97 97 ENE 7 11 30.03 1017 1 1 0.00 0.00
12:00 pm 12:00 Cloudy with Mist and Fog 47 8.3 46 7.8 97 97 ENE 8 13 30.06 1018 1 2 0.00 0.00
1:53 pm 13:53 Cloudy with Mist and Fog 47 8.3 47 8.3 100 100 E 9 15 29.99 1016 1 2 0.00 0.00
2:14 pm 14:14 Cloudy with Mist and Fog 48 8.9 47 8.3 96 96 ENE 6 9 29.97 1015 1 1 0.00 0.00
2:30 pm 14:30 Cloudy with Mist and Fog 48 8.9 47 8.3 96 96 ENE 7 11 29.94 1014 2 2 0.00 0.00
2:40 pm 14:40 Cloudy with Mist and Fog 48 8.9 47 8.3 96 96 ENE 8 13 29.97 1015 3 4 0.00 0.00
2:46 pm 14:46 Cloudy with Mist and Fog 48 8.9 47 8.3 96 96 ENE 9 15 29.94 1014 3 5 0.00 0.00
2:53 pm 14:53 Cloudy with Light Rain 48 8.9 47 8.3 96 96 E 9 15 29.97 1015 4 6 0.00 0.03
3:15 pm 15:15 Cloudy with Light Rain 48 8.9 47 8.3 96 96 ENE 8 13 29.94 1014 3 4 0.02 0.51
3:40 pm 15:40 Cloudy with Light Rain 48 8.9 47 8.3 96 96 VRB 5 7 29.94 1014 4 6 0.06 1.52
3:53 pm 15:53 Cloudy with Light Rain 48 8.9 47 8.3 96 96 VRB 3 6 29.96 1015 5 8 0.06 1.52
4:53 pm 16:53 Cloudy 48 8.9 47 8.3 96 96 ENE 6 9 29.95 1014 8 13 0.00 0.03
5:53 pm 17:53 Cloudy with Mist and Fog 49 9.4 48 8.9 97 97 ENE 5 7 29.97 1015 6 10 0.00 0.00
6:01 pm 18:01 Cloudy with Mist and Fog 48 8.9 48 8.9 100 100 E 5 7 29.94 1014 2 3 0.00 0.00
6:48 pm 18:48 Cloudy with Nearby Thunderstorms 48 9 46 8 94 94 ENE 7 11 29.94 1014 1 2 0.21 5.33
6:53 pm 18:53 Cloudy with Nearby Thunderstorms 48 8.9 47 8.3 96 96 VRB 6 9 29.97 1015 1 2 0.23 5.84
7:01 pm 19:01 Cloudy with Nearby Thunderstorms 48 8.9 48 8.9 100 100 VRB 3 6 29.94 1014 2 3 0.04 1.02
7:09 pm 19:09 Cloudy with Rain 48 8.9 47 8.3 96 96 VRB 7 11 29.91 1013 2 3 0.06 1.52
7:24 pm 19:24 Cloudy with Light Rain 48 8.9 47 8.3 96 96 undefined N/A 29.94 1014 3 5 0.09 2.29
7:53 pm 19:53 Cloudy with Light Rain 48 8.9 47 8.3 96 96 VRB 5 7 29.96 1015 3 5 0.12 3.05
8:02 pm 20:02 Cloudy with Light Rain 48 8.9 47 8.3 96 96 VRB 3 6 29.97 1015 4 6 0.01 0.25
8:53 pm 20:53 Cloudy with Light Rain 48 8.9 47 8.3 96 96 VRB 5 7 29.98 1015 4 6 0.10 2.54
9:53 pm 21:53 Cloudy with Light Rain 48 8.9 47 8.3 96 96 undefined N/A 29.98 1015 6 10 0.07 1.78
10:53 pm 22:53 Cloudy with Light Rain 47 8.3 47 8.3 100 100 ENE 9 15 29.93 1014 5 8 0.04 1.02
11:02 pm 23:02 Cloudy with Light Rain 47 8.3 47 8.3 100 100 ENE 10 17 29.91 1013 4 6 0.02 0.51
11:53 pm 23:53 Cloudy 48 8.9 47 8.3 96 96 E 5 7 29.93 1014 7 11 0.03 0.76

Powered by AerisWeather